Precipitable_Water
0.68 0.67 0.64 0.60 0.57 0.54 0.53 0.52 0.50 0.49 0.47 0.45 0.44 0.42 0.41 0.40 0.38 0.35 0.33 0.29 0.25 0.22 0.19 0.18 0.17 0.15 0.15 0.14 0.13 0.13 0.12 0.12 0.12 0.12 0.13 0.13 0.14 0.15 0.15 0.15 0.15 0.15 0.16 0.16 0.17 0.18 0.17 0.18 0.19 0.19 0.20 0.19 0.21 0.22 0.22 0.22 0.23 0.22 0.21 0.21 0.20 0.20 0.19 0.18 0.17 0.16 0.17 0.18 0.17 0.16 0.17 0.16 0.15 0.15 0.14 0.14 0.15 0.15 0.16 0.16 0.16 0.15 0.14 0.13 0.12
0.60 0.58 0.55 0.53 0.51 0.50 0.50 0.49 0.48 0.46 0.44 0.42 0.41 0.40 0.39 0.38 0.36 0.33 0.29 0.26 0.22 0.19 0.18 0.16 0.15 0.14 0.14 0.13 0.13 0.12 0.12 0.11 0.12 0.12 0.13 0.13 0.14 0.15 0.15 0.15 0.15 0.16 0.17 0.16 0.17 0.18 0.17 0.18 0.19 0.20 0.21 0.21 0.22 0.21 0.22 0.22 0.21 0.21 0.20 0.20 0.20 0.19 0.19 0.18 0.17 0.16 0.15 0.16 0.16 0.16 0.16 0.16 0.14 0.15 0.14 0.14 0.14 0.15 0.14 0.14 0.15 0.14 0.13 0.13 0.12
0.56 0.54 0.51 0.50 0.49 0.49 0.48 0.46 0.45 0.43 0.42 0.41 0.40 0.39 0.37 0.36 0.34 0.30 0.26 0.22 0.20 0.17 0.16 0.15 0.14 0.14 0.13 0.13 0.12 0.11 0.11 0.11 0.12 0.12 0.13 0.14 0.14 0.15 0.15 0.16 0.16 0.16 0.16 0.16 0.17 0.18 0.18 0.19 0.20 0.20 0.22 0.21 0.22 0.22 0.22 0.21 0.21 0.20 0.20 0.20 0.19 0.19 0.19 0.18 0.17 0.15 0.15 0.14 0.15 0.15 0.15 0.15 0.14 0.14 0.14 0.14 0.15 0.14 0.14 0.14 0.13 0.13 0.12 0.13 0.12
0.54 0.52 0.50 0.49 0.49 0.47 0.45 0.43 0.42 0.40 0.39 0.38 0.37 0.37 0.35 0.34 0.31 0.27 0.23 0.20 0.17 0.16 0.15 0.14 0.13 0.13 0.12 0.12 0.11 0.11 0.11 0.11 0.12 0.13 0.14 0.15 0.15 0.15 0.16 0.16 0.17 0.16 0.16 0.17 0.17 0.18 0.18 0.19 0.20 0.21 0.22 0.22 0.22 0.21 0.21 0.21 0.21 0.20 0.19 0.19 0.19 0.18 0.18 0.18 0.17 0.16 0.15 0.13 0.13 0.14 0.14 0.14 0.14 0.14 0.14 0.15 0.14 0.14 0.14 0.13 0.12 0.12 0.12 0.12 0.12
0.53 0.51 0.49 0.47 0.46 0.44 0.42 0.41 0.39 0.38 0.37 0.37 0.36 0.35 0.33 0.31 0.28 0.24 0.21 0.18 0.16 0.14 0.13 0.13 0.13 0.13 0.12 0.11 0.11 0.11 0.11 0.12 0.12 0.14 0.15 0.16 0.15 0.16 0.16 0.16 0.16 0.17 0.17 0.17 0.18 0.19 0.20 0.20 0.21 0.22 0.22 0.21 0.21 0.21 0.21 0.20 0.20 0.20 0.19 0.18 0.18 0.18 0.18 0.17 0.16 0.16 0.14 0.13 0.13 0.14 0.14 0.14 0.14 0.14 0.15 0.14 0.13 0.13 0.12 0.11 0.11 0.12 0.12 0.12 0.12
0.50 0.48 0.46 0.44 0.42 0.41 0.39 0.38 0.37 0.37 0.36 0.35 0.34 0.33 0.32 0.29 0.26 0.22 0.20 0.17 0.15 0.14 0.13 0.13 0.13 0.12 0.11 0.11 0.11 0.11 0.12 0.12 0.13 0.15 0.16 0.16 0.16 0.16 0.16 0.17 0.17 0.17 0.18 0.19 0.19 0.20 0.20 0.21 0.22 0.22 0.22 0.21 0.21 0.21 0.21 0.20 0.20 0.19 0.18 0.18 0.18 0.17 0.17 0.16 0.16 0.15 0.14 0.14 0.13 0.13 0.14 0.13 0.13 0.14 0.14 0.14 0.12 0.11 0.10 0.11 0.12 0.12 0.12 0.11 0.10
0.46 0.42 0.41 0.39 0.38 0.37 0.36 0.35 0.35 0.34 0.34 0.34 0.33 0.32 0.30 0.27 0.24 0.21 0.19 0.16 0.13 0.12 0.13 0.12 0.12 0.11 0.11 0.11 0.11 0.11 0.12 0.13 0.14 0.15 0.16 0.16 0.16 0.16 0.16 0.17 0.18 0.18 0.19 0.20 0.20 0.21 0.22 0.22 0.23 0.22 0.22 0.22 0.21 0.21 0.21 0.21 0.20 0.20 0.19 0.19 0.18 0.17 0.16 0.16 0.16 0.15 0.14 0.14 0.14 0.14 0.13 0.14 0.14 0.13 0.13 0.13 0.12 0.12 0.11 0.11 0.10 0.11 0.11 0.10 0.09
0.42 0.39 0.37 0.35 0.34 0.33 0.33 0.32 0.32 0.33 0.32 0.32 0.31 0.29 0.27 0.25 0.23 0.21 0.18 0.15 0.13 0.12 0.12 0.12 0.12 0.11 0.11 0.11 0.12 0.12 0.12 0.13 0.15 0.15 0.16 0.16 0.16 0.17 0.17 0.18 0.18 0.19 0.20 0.21 0.22 0.22 0.23 0.23 0.23 0.23 0.23 0.23 0.23 0.22 0.22 0.21 0.20 0.19 0.19 0.19 0.18 0.17 0.16 0.15 0.15 0.15 0.14 0.14 0.13 0.13 0.13 0.13 0.13 0.13 0.12 0.12 0.11 0.11 0.12 0.11 0.10 0.10 0.10 0.10 0.09
0.39 0.36 0.34 0.32 0.31 0.30 0.31 0.31 0.32 0.32 0.31 0.29 0.28 0.27 0.25 0.24 0.22 0.20 0.18 0.15 0.13 0.12 0.12 0.12 0.11 0.11 0.12 0.12 0.12 0.12 0.12 0.13 0.14 0.15 0.15 0.16 0.18 0.17 0.18 0.19 0.19 0.20 0.21 0.22 0.23 0.23 0.23 0.23 0.23 0.24 0.24 0.24 0.23 0.23 0.21 0.21 0.20 0.19 0.18 0.18 0.17 0.16 0.15 0.15 0.15 0.14 0.14 0.13 0.13 0.13 0.13 0.12 0.11 0.11 0.11 0.11 0.10 0.10 0.11 0.12 0.11 0.11 0.10 0.09 0.09
0.35 0.32 0.31 0.30 0.30 0.30 0.30 0.31 0.31 0.30 0.28 0.27 0.26 0.25 0.24 0.23 0.21 0.19 0.17 0.15 0.13 0.12 0.12 0.12 0.12 0.12 0.11 0.12 0.12 0.12 0.13 0.14 0.15 0.15 0.17 0.18 0.18 0.18 0.19 0.20 0.21 0.21 0.22 0.22 0.23 0.24 0.24 0.23 0.24 0.24 0.24 0.23 0.22 0.21 0.20 0.20 0.20 0.19 0.18 0.17 0.16 0.16 0.15 0.15 0.14 0.14 0.14 0.13 0.13 0.12 0.11 0.10 0.11 0.11 0.11 0.11 0.11 0.12 0.12 0.11 0.09 0.09 0.10 0.09 0.08
0.32 0.30 0.29 0.29 0.30 0.30 0.30 0.29 0.28 0.27 0.26 0.25 0.24 0.24 0.23 0.22 0.21 0.19 0.18 0.15 0.13 0.12 0.12 0.12 0.12 0.12 0.12 0.12 0.12 0.12 0.13 0.14 0.14 0.16 0.18 0.19 0.20 0.20 0.20 0.21 0.22 0.22 0.23 0.23 0.23 0.24 0.23 0.24 0.24 0.23 0.22 0.21 0.21 0.20 0.19 0.19 0.18 0.18 0.17 0.17 0.17 0.16 0.15 0.14 0.14 0.14 0.14 0.13 0.12 0.11 0.11 0.10 0.11 0.11 0.11 0.12 0.12 0.11 0.10 0.10 0.10 0.09 0.08 0.07 0.06
0.31 0.30 0.30 0.30 0.30 0.29 0.28 0.27 0.26 0.25 0.24 0.24 0.23 0.23 0.22 0.21 0.21 0.19 0.18 0.16 0.14 0.13 0.12 0.12 0.12 0.12 0.12 0.12 0.12 0.12 0.13 0.14 0.15 0.16 0.19 0.20 0.21 0.22 0.21 0.22 0.22 0.23 0.24 0.24 0.24 0.24 0.24 0.24 0.23 0.22 0.22 0.21 0.20 0.19 0.18 0.18 0.17 0.17 0.17 0.17 0.17 0.17 0.17 0.16 0.14 0.13 0.12 0.11 0.11 0.11 0.11 0.11 0.11 0.11 0.11 0.11 0.10 0.10 0.10 0.09 0.09 0.08 0.08 0.07 0.07
0.31 0.30 0.29 0.29 0.29 0.28 0.27 0.26 0.25 0.24 0.24 0.23 0.23 0.22 0.21 0.21 0.20 0.19 0.18 0.16 0.14 0.13 0.12 0.12 0.12 0.12 0.12 0.12 0.12 0.13 0.13 0.15 0.16 0.18 0.20 0.21 0.22 0.22 0.22 0.23 0.23 0.24 0.24 0.24 0.24 0.24 0.24 0.23 0.22 0.21 0.21 0.20 0.19 0.18 0.17 0.17 0.17 0.17 0.17 0.17 0.17 0.16 0.16 0.15 0.15 0.14 0.14 0.12 0.12 0.11 0.11 0.11 0.11 0.11 0.11 0.11 0.11 0.09 0.08 0.08 0.08 0.08 0.07 0.06 0.05
0.31 0.30 0.29 0.29 0.28 0.27 0.26 0.24 0.24 0.24 0.24 0.23 0.22 0.22 0.21 0.21 0.20 0.20 0.19 0.17 0.15 0.14 0.13 0.13 0.13 0.13 0.13 0.13 0.13 0.14 0.14 0.16 0.17 0.19 0.20 0.21 0.22 0.24 0.23 0.23 0.23 0.24 0.24 0.25 0.25 0.25 0.24 0.23 0.21 0.20 0.20 0.19 0.18 0.18 0.17 0.17 0.17 0.18 0.17 0.16 0.15 0.15 0.15 0.14 0.14 0.13 0.13 0.12 0.12 0.11 0.11 0.12 0.10 0.10 0.10 0.10 0.09 0.08 0.08 0.07 0.07 0.06 0.05 0.05 0.05
0.32 0.31 0.29 0.28 0.27 0.26 0.25 0.25 0.24 0.24 0.24 0.23 0.22 0.22 0.21 0.21 0.21 0.20 0.19 0.18 0.17 0.16 0.15 0.14 0.13 0.13 0.14 0.14 0.14 0.15 0.16 0.18 0.18 0.19 0.21 0.22 0.23 0.24 0.23 0.23 0.24 0.25 0.26 0.26 0.25 0.24 0.23 0.22 0.21 0.20 0.19 0.18 0.18 0.18 0.18 0.18 0.18 0.17 0.16 0.15 0.15 0.14 0.13 0.13 0.12 0.12 0.12 0.12 0.12 0.11 0.11 0.11 0.10 0.10 0.10 0.09 0.08 0.07 0.07 0.06 0.06 0.06 0.05 0.05 0.05
0.32 0.31 0.28 0.27 0.27 0.27 0.27 0.26 0.25 0.24 0.23 0.23 0.23 0.22 0.22 0.21 0.21 0.21 0.20 0.19 0.18 0.18 0.17 0.16 0.15 0.15 0.15 0.16 0.16 0.16 0.17 0.19 0.19 0.20 0.22 0.23 0.24 0.24 0.24 0.24 0.25 0.25 0.26 0.25 0.25 0.24 0.23 0.22 0.21 0.20 0.19 0.18 0.18 0.18 0.19 0.18 0.17 0.16 0.15 0.15 0.14 0.13 0.12 0.12 0.12 0.12 0.12 0.11 0.11 0.11 0.11 0.10 0.09 0.08 0.08 0.08 0.07 0.06 0.07 0.07 0.06 0.05 0.05 0.04 0.04
0.31 0.30 0.29 0.28 0.28 0.28 0.27 0.26 0.25 0.24 0.24 0.23 0.23 0.23 0.22 0.22 0.22 0.22 0.21 0.20 0.20 0.19 0.18 0.17 0.17 0.17 0.17 0.17 0.17 0.18 0.18 0.20 0.21 0.21 0.23 0.24 0.24 0.24 0.24 0.25 0.25 0.26 0.25 0.25 0.25 0.24 0.22 0.22 0.21 0.20 0.19 0.18 0.18 0.19 0.18 0.18 0.17 0.16 0.14 0.13 0.12 0.11 0.10 0.10 0.10 0.10 0.11 0.11 0.11 0.10 0.08 0.07 0.07 0.07 0.07 0.07 0.07 0.07 0.07 0.05 0.04 0.05 0.04 0.04 0.04
0.31 0.30 0.29 0.28 0.28 0.28 0.27 0.26 0.25 0.25 0.24 0.24 0.24 0.23 0.23 0.23 0.22 0.22 0.21 0.21 0.21 0.21 0.20 0.19 0.18 0.18 0.18 0.18 0.19 0.19 0.19 0.21 0.23 0.23 0.24 0.25 0.25 0.24 0.25 0.25 0.25 0.26 0.25 0.25 0.24 0.23 0.22 0.22 0.21 0.20 0.19 0.18 0.19 0.18 0.18 0.18 0.17 0.15 0.13 0.12 0.10 0.09 0.08 0.09 0.10 0.11 0.11 0.09 0.08 0.07 0.06 0.06 0.06 0.06 0.06 0.06 0.07 0.07 0.05 0.04 0.05 0.05 0.04 0.04 0.04
0.30 0.29 0.28 0.29 0.29 0.29 0.28 0.27 0.26 0.25 0.25 0.24 0.24 0.24 0.24 0.23 0.23 0.23 0.23 0.23 0.23 0.23 0.22 0.21 0.20 0.19 0.20 0.20 0.20 0.20 0.21 0.22 0.24 0.24 0.25 0.26 0.26 0.26 0.26 0.26 0.26 0.26 0.25 0.24 0.23 0.23 0.22 0.21 0.20 0.20 0.20 0.19 0.18 0.18 0.18 0.17 0.16 0.15 0.12 0.11 0.09 0.08 0.09 0.10 0.10 0.09 0.07 0.06 0.05 0.05 0.05 0.05 0.05 0.05 0.05 0.06 0.06 0.06 0.05 0.05 0.05 0.05 0.04 0.04 0.04
0.32 0.31 0.30 0.30 0.30 0.29 0.28 0.27 0.26 0.26 0.25 0.25 0.25 0.24 0.24 0.24 0.24 0.24 0.24 0.25 0.24 0.24 0.24 0.22 0.21 0.21 0.21 0.21 0.22 0.22 0.23 0.23 0.25 0.25 0.26 0.26 0.27 0.27 0.27 0.26 0.26 0.25 0.25 0.24 0.23 0.22 0.22 0.21 0.20 0.19 0.19 0.18 0.17 0.18 0.17 0.16 0.15 0.14 0.11 0.10 0.08 0.08 0.10 0.10 0.09 0.07 0.06 0.05 0.05 0.05 0.05 0.05 0.05 0.05 0.05 0.05 0.05 0.05 0.05 0.05 0.05 0.05 0.04 0.04 0.04
0.33 0.31 0.30 0.29 0.29 0.29 0.29 0.28 0.27 0.27 0.26 0.26 0.25 0.25 0.25 0.25 0.25 0.25 0.25 0.25 0.25 0.25 0.24 0.23 0.23 0.22 0.23 0.23 0.24 0.24 0.24 0.24 0.25 0.26 0.27 0.27 0.28 0.29 0.27 0.27 0.27 0.26 0.25 0.24 0.23 0.22 0.21 0.20 0.20 0.19 0.18 0.18 0.18 0.17 0.16 0.15 0.14 0.12 0.10 0.09 0.09 0.10 0.10 0.08 0.06 0.06 0.05 0.05 0.05 0.05 0.05 0.05 0.05 0.05 0.05 0.05 0.05 0.05 0.05 0.05 0.05 0.05 0.05 0.04 0.04
0.31 0.31 0.30 0.29 0.29 0.29 0.29 0.29 0.28 0.27 0.27 0.26 0.26 0.26 0.26 0.26 0.26 0.26 0.26 0.26 0.26 0.26 0.25 0.25 0.24 0.24 0.25 0.25 0.26 0.26 0.26 0.26 0.26 0.27 0.27 0.28 0.28 0.30 0.28 0.27 0.27 0.26 0.25 0.24 0.23 0.22 0.21 0.20 0.19 0.18 0.18 0.18 0.17 0.16 0.14 0.14 0.12 0.10 0.09 0.10 0.10 0.10 0.08 0.06 0.06 0.05 0.05 0.05 0.05 0.05 0.05 0.04 0.04 0.04 0.04 0.04 0.05 0.05 0.05 0.05 0.05 0.05 0.05 0.05 0.05
0.30 0.29 0.29 0.29 0.29 0.29 0.30 0.30 0.29 0.29 0.29 0.28 0.28 0.27 0.27 0.27 0.27 0.27 0.26 0.26 0.27 0.27 0.27 0.27 0.26 0.26 0.26 0.27 0.27 0.27 0.27 0.27 0.27 0.27 0.27 0.28 0.29 0.30 0.29 0.28 0.28 0.28 0.26 0.23 0.22 0.21 0.20 0.19 0.18 0.18 0.18 0.17 0.15 0.14 0.13 0.12 0.10 0.09 0.10 0.10 0.09 0.08 0.06 0.06 0.05 0.05 0.05 0.05 0.05 0.04 0.04 0.04 0.04 0.04 0.04 0.04 0.04 0.05 0.05 0.05 0.05 0.05 0.05 0.05 0.05
0.29 0.28 0.28 0.28 0.29 0.29 0.30 0.31 0.30 0.30 0.30 0.29 0.29 0.28 0.27 0.28 0.28 0.28 0.28 0.28 0.28 0.28 0.28 0.29 0.29 0.28 0.28 0.28 0.28 0.28 0.27 0.27 0.28 0.27 0.27 0.28 0.29 0.30 0.29 0.29 0.29 0.27 0.25 0.24 0.23 0.21 0.19 0.19 0.19 0.18 0.17 0.15 0.14 0.13 0.11 0.10 0.09 0.09 0.09 0.09 0.07 0.06 0.06 0.05 0.05 0.05 0.05 0.05 0.04 0.04 0.04 0.04 0.04 0.04 0.04 0.04 0.04 0.04 0.05 0.05 0.05 0.05 0.05 0.05 0.05
0.29 0.28 0.28 0.28 0.29 0.29 0.30 0.31 0.31 0.31 0.31 0.31 0.30 0.30 0.29 0.29 0.29 0.30 0.30 0.30 0.30 0.30 0.30 0.31 0.30 0.30 0.30 0.29 0.29 0.28 0.27 0.27 0.28 0.28 0.28 0.28 0.29 0.30 0.29 0.29 0.28 0.27 0.25 0.24 0.22 0.20 0.20 0.20 0.18 0.17 0.15 0.14 0.13 0.11 0.09 0.08 0.08 0.08 0.08 0.07 0.06 0.06 0.05 0.05 0.05 0.05 0.05 0.04 0.04 0.04 0.04 0.04 0.04 0.04 0.05 0.04 0.04 0.05 0.04 0.04 0.04 0.05 0.05 0.05 0.05
0.29 0.29 0.29 0.29 0.29 0.30 0.30 0.31 0.32 0.32 0.33 0.33 0.33 0.32 0.32 0.32 0.32 0.32 0.32 0.32 0.32 0.32 0.32 0.32 0.32 0.31 0.30 0.30 0.29 0.28 0.27 0.27 0.28 0.28 0.29 0.29 0.29 0.29 0.29 0.28 0.27 0.25 0.24 0.23 0.22 0.21 0.20 0.18 0.16 0.15 0.13 0.12 0.11 0.09 0.08 0.08 0.08 0.07 0.07 0.06 0.06 0.06 0.05 0.05 0.05 0.05 0.05 0.04 0.04 0.04 0.04 0.04 0.04 0.04 0.04 0.04 0.04 0.04 0.04 0.04 0.04 0.04 0.04 0.04 0.04
0.30 0.30 0.29 0.30 0.30 0.31 0.31 0.32 0.33 0.34 0.34 0.35 0.35 0.35 0.35 0.34 0.33 0.33 0.32 0.32 0.32 0.32 0.32 0.32 0.32 0.32 0.31 0.30 0.29 0.28 0.27 0.27 0.28 0.28 0.29 0.29 0.28 0.28 0.28 0.27 0.26 0.25 0.23 0.22 0.21 0.19 0.18 0.16 0.15 0.14 0.12 0.11 0.10 0.09 0.08 0.08 0.07 0.07 0.06 0.06 0.06 0.06 0.05 0.05 0.05 0.05 0.05 0.04 0.04 0.04 0.04 0.04 0.04 0.04 0.04 0.04 0.04 0.04 0.04 0.04 0.04 0.04 0.04 0.04 0.04
0.31 0.31 0.31 0.32 0.32 0.33 0.34 0.35 0.35 0.36 0.37 0.37 0.37 0.37 0.36 0.35 0.34 0.33 0.33 0.33 0.33 0.33 0.33 0.33 0.33 0.32 0.31 0.29 0.29 0.28 0.28 0.28 0.28 0.28 0.28 0.28 0.28 0.28 0.27 0.26 0.24 0.23 0.22 0.21 0.20 0.18 0.17 0.15 0.14 0.12 0.11 0.09 0.08 0.08 0.07 0.07 0.07 0.06 0.06 0.06 0.06 0.06 0.05 0.05 0.05 0.05 0.05 0.05 0.04 0.04 0.04 0.04 0.04 0.04 0.04 0.04 0.04 0.04 0.04 0.04 0.04 0.04 0.04 0.04 0.04
0.33 0.33 0.33 0.34 0.34 0.36 0.36 0.37 0.37 0.38 0.38 0.38 0.38 0.38 0.37 0.37 0.35 0.35 0.34 0.34 0.33 0.33 0.33 0.33 0.32 0.32 0.30 0.30 0.29 0.28 0.28 0.29 0.29 0.29 0.29 0.29 0.28 0.28 0.27 0.26 0.24 0.22 0.22 0.21 0.19 0.18 0.16 0.14 0.12 0.11 0.09 0.08 0.08 0.07 0.07 0.07 0.06 0.06 0.06 0.06 0.05 0.05 0.05 0.05 0.05 0.05 0.05 0.04 0.04 0.04 0.04 0.04 0.04 0.04 0.04 0.04 0.04 0.04 0.04 0.04 0.04 0.04 0.04 0.04 0.04
0.33 0.34 0.35 0.36 0.36 0.37 0.37 0.37 0.38 0.38 0.38 0.38 0.38 0.37 0.38 0.37 0.35 0.33 0.32 0.33 0.33 0.33 0.32 0.32 0.32 0.31 0.31 0.30 0.30 0.30 0.30 0.30 0.30 0.30 0.29 0.30 0.29 0.28 0.27 0.26 0.24 0.23 0.23 0.21 0.19 0.16 0.14 0.12 0.11 0.10 0.09 0.08 0.07 0.07 0.07 0.06 0.06 0.06 0.05 0.05 0.05 0.05 0.05 0.05 0.05 0.05 0.05 0.04 0.04 0.04 0.04 0.04 0.04 0.04 0.04 0.04 0.04 0.04 0.04 0.04 0.04 0.04 0.04 0.04 0.04
0.34 0.35 0.36 0.37 0.37 0.37 0.37 0.38 0.39 0.39 0.38 0.38 0.38 0.37 0.37 0.37 0.36 0.34 0.33 0.32 0.32 0.32 0.33 0.32 0.32 0.32 0.31 0.31 0.31 0.32 0.31 0.31 0.30 0.30 0.30 0.30 0.30 0.29 0.28 0.26 0.25 0.24 0.23 0.20 0.17 0.15 0.13 0.11 0.10 0.09 0.08 0.08 0.07 0.07 0.07 0.06 0.06 0.05 0.05 0.05 0.05 0.05 0.05 0.05 0.05 0.05 0.04 0.04 0.04 0.04 0.04 0.04 0.04 0.04 0.04 0.04 0.04 0.04 0.04 0.04 0.04 0.04 0.04 0.04 0.04
0.35 0.37 0.38 0.38 0.39 0.39 0.39 0.39 0.39 0.39 0.39 0.38 0.38 0.37 0.36 0.35 0.35 0.35 0.34 0.32 0.32 0.32 0.33 0.33 0.33 0.33 0.32 0.32 0.32 0.32 0.32 0.31 0.31 0.30 0.30 0.30 0.30 0.28 0.26 0.25 0.24 0.23 0.21 0.19 0.16 0.13 0.12 0.10 0.09 0.09 0.08 0.08 0.07 0.07 0.06 0.06 0.06 0.05 0.05 0.05 0.05 0.05 0.05 0.05 0.05 0.05 0.04 0.04 0.04 0.04 0.04 0.04 0.04 0.04 0.04 0.04 0.04 0.04 0.04 0.04 0.04 0.04 0.04 0.04 0.04
0.39 0.39 0.39 0.39 0.39 0.39 0.39 0.39 0.39 0.39 0.38 0.38 0.37 0.36 0.35 0.34 0.34 0.33 0.33 0.33 0.33 0.33 0.34 0.33 0.33 0.33 0.33 0.33 0.33 0.33 0.32 0.31 0.31 0.31 0.31 0.30 0.28 0.27 0.26 0.24 0.23 0.22 0.20 0.17 0.15 0.12 0.11 0.10 0.09 0.09 0.08 0.07 0.07 0.07 0.06 0.06 0.06 0.05 0.05 0.05 0.05 0.05 0.05 0.05 0.05 0.05 0.04 0.04 0.04 0.04 0.04 0.04 0.04 0.04 0.04 0.04 0.04 0.04 0.04 0.04 0.04 0.04 0.04 0.04 0.04
0.41 0.40 0.40 0.39 0.39 0.39 0.40 0.40 0.39 0.39 0.38 0.37 0.37 0.36 0.36 0.35 0.35 0.34 0.33 0.33 0.33 0.34 0.35 0.34 0.34 0.34 0.34 0.34 0.34 0.33 0.32 0.31 0.31 0.31 0.30 0.29 0.27 0.26 0.25 0.24 0.23 0.21 0.19 0.16 0.14 0.11 0.10 0.10 0.09 0.09 0.08 0.07 0.07 0.07 0.06 0.06 0.06 0.05 0.05 0.05 0.05 0.05 0.05 0.05 0.05 0.04 0.04 0.04 0.04 0.04 0.04 0.04 0.04 0.04 0.03 0.04 0.04 0.04 0.04 0.04 0.04 0.04 0.04 0.04 0.04
0.42 0.41 0.41 0.42 0.42 0.41 0.41 0.40 0.39 0.39 0.38 0.37 0.36 0.36 0.36 0.36 0.35 0.35 0.34 0.32 0.32 0.32 0.33 0.34 0.35 0.34 0.34 0.35 0.34 0.33 0.32 0.32 0.32 0.31 0.30 0.28 0.27 0.25 0.25 0.22 0.20 0.19 0.17 0.15 0.13 0.11 0.10 0.10 0.09 0.08 0.08 0.07 0.07 0.06 0.06 0.06 0.06 0.05 0.05 0.05 0.05 0.05 0.05 0.05 0.04 0.04 0.04 0.04 0.04 0.04 0.04 0.04 0.04 0.04 0.04 0.03 0.03 0.03 0.04 0.04 0.04 0.04 0.04 0.04 0.04
0.44 0.44 0.43 0.43 0.42 0.42 0.42 0.41 0.40 0.39 0.38 0.37 0.37 0.36 0.36 0.36 0.36 0.36 0.35 0.34 0.32 0.32 0.32 0.33 0.34 0.34 0.35 0.35 0.35 0.34 0.32 0.32 0.32 0.30 0.29 0.27 0.26 0.25 0.23 0.21 0.19 0.18 0.16 0.14 0.12 0.11 0.10 0.10 0.09 0.08 0.08 0.07 0.07 0.06 0.06 0.06 0.06 0.05 0.05 0.05 0.05 0.05 0.05 0.04 0.04 0.04 0.04 0.04 0.04 0.04 0.04 0.04 0.04 0.04 0.04 0.03 0.03 0.04 0.04 0.04 0.04 0.04 0.04 0.04 0.04
0.43 0.43 0.43 0.42 0.42 0.42 0.41 0.41 0.40 0.40 0.39 0.38 0.37 0.37 0.37 0.36 0.36 0.36 0.36 0.35 0.33 0.33 0.32 0.33 0.33 0.34 0.34 0.34 0.34 0.34 0.33 0.32 0.31 0.30 0.28 0.27 0.26 0.25 0.23 0.20 0.18 0.17 0.15 0.13 0.12 0.11 0.10 0.09 0.09 0.08 0.07 0.07 0.07 0.06 0.06 0.06 0.06 0.05 0.05 0.05 0.05 0.05 0.04 0.04 0.04 0.04 0.04 0.04 0.04 0.04 0.04 0.04 0.04 0.04 0.03 0.03 0.03 0.04 0.04 0.04 0.04 0.04 0.04 0.04 0.04
0.44 0.43 0.43 0.43 0.42 0.42 0.42 0.41 0.41 0.40 0.40 0.39 0.38 0.37 0.37 0.37 0.36 0.36 0.36 0.35 0.34 0.33 0.33 0.33 0.33 0.32 0.32 0.32 0.33 0.32 0.32 0.31 0.30 0.29 0.27 0.26 0.25 0.23 0.21 0.20 0.18 0.16 0.14 0.13 0.12 0.11 0.10 0.09 0.08 0.08 0.07 0.07 0.07 0.06 0.06 0.06 0.06 0.05 0.05 0.05 0.05 0.05 0.04 0.04 0.04 0.04 0.04 0.04 0.04 0.04 0.04 0.04 0.04 0.04 0.04 0.03 0.03 0.03 0.04 0.04 0.04 0.04 0.04 0.04 0.04
0.46 0.46 0.46 0.45 0.45 0.44 0.44 0.43 0.42 0.41 0.40 0.39 0.38 0.37 0.37 0.37 0.37 0.36 0.36 0.36 0.35 0.34 0.33 0.33 0.32 0.32 0.32 0.32 0.31 0.31 0.30 0.29 0.28 0.26 0.26 0.25 0.24 0.22 0.21 0.19 0.17 0.16 0.14 0.12 0.12 0.11 0.10 0.09 0.08 0.08 0.07 0.07 0.07 0.06 0.06 0.06 0.06 0.05 0.05 0.05 0.05 0.04 0.04 0.04 0.04 0.04 0.04 0.04 0.04 0.04 0.04 0.04 0.04 0.04 0.04 0.03 0.03 0.04 0.04 0.04 0.04 0.04 0.04 0.04 0.04
0.47 0.47 0.47 0.47 0.47 0.46 0.46 0.44 0.43 0.41 0.40 0.39 0.39 0.38 0.37 0.37 0.37 0.37 0.37 0.36 0.35 0.35 0.34 0.33 0.32 0.32 0.32 0.31 0.31 0.30 0.29 0.28 0.27 0.26 0.25 0.24 0.22 0.21 0.20 0.18 0.17 0.15 0.13 0.12 0.11 0.10 0.10 0.09 0.08 0.08 0.07 0.07 0.06 0.06 0.06 0.06 0.05 0.05 0.05 0.05 0.05 0.04 0.04 0.04 0.04 0.04 0.04 0.04 0.04 0.04 0.04 0.04 0.04 0.04 0.04 0.04 0.03 0.04 0.04 0.04 0.04 0.04 0.04 0.04 0.05
0.48 0.48 0.48 0.48 0.47 0.46 0.46 0.44 0.43 0.42 0.41 0.40 0.39 0.38 0.38 0.37 0.38 0.38 0.37 0.37 0.36 0.35 0.34 0.33 0.32 0.32 0.32 0.31 0.30 0.30 0.29 0.27 0.27 0.26 0.24 0.23 0.22 0.20 0.19 0.18 0.16 0.14 0.13 0.12 0.11 0.10 0.10 0.09 0.08 0.08 0.07 0.07 0.07 0.06 0.06 0.06 0.05 0.05 0.05 0.05 0.05 0.04 0.04 0.04 0.04 0.04 0.04 0.04 0.04 0.04 0.04 0.04 0.04 0.04 0.03 0.03 0.04 0.04 0.04 0.04 0.04 0.04 0.04 0.05 0.05
0.48 0.48 0.47 0.47 0.47 0.47 0.46 0.45 0.44 0.43 0.42 0.41 0.40 0.40 0.39 0.38 0.38 0.38 0.38 0.37 0.36 0.35 0.34 0.33 0.32 0.32 0.31 0.30 0.29 0.29 0.28 0.27 0.26 0.25 0.23 0.22 0.21 0.20 0.19 0.18 0.16 0.14 0.13 0.12 0.11 0.10 0.09 0.09 0.08 0.08 0.07 0.07 0.06 0.06 0.06 0.06 0.05 0.05 0.05 0.05 0.05 0.04 0.04 0.04 0.04 0.04 0.04 0.04 0.04 0.04 0.04 0.04 0.04 0.04 0.04 0.04 0.03 0.04 0.04 0.04 0.04 0.04 0.04 0.05 0.05
0.49 0.49 0.49 0.49 0.49 0.48 0.47 0.47 0.46 0.45 0.44 0.43 0.42 0.41 0.40 0.39 0.39 0.38 0.38 0.37 0.36 0.35 0.34 0.33 0.32 0.30 0.29 0.29 0.29 0.28 0.27 0.26 0.25 0.24 0.22 0.21 0.21 0.20 0.19 0.17 0.15 0.14 0.13 0.12 0.11 0.10 0.09 0.09 0.08 0.07 0.07 0.07 0.06 0.06 0.06 0.06 0.05 0.05 0.05 0.05 0.05 0.04 0.04 0.04 0.04 0.04 0.04 0.04 0.04 0.04 0.04 0.04 0.04 0.04 0.04 0.03 0.03 0.04 0.04 0.04 0.04 0.04 0.05 0.05 0.05
0.51 0.51 0.51 0.50 0.50 0.49 0.49 0.48 0.47 0.46 0.45 0.44 0.43 0.42 0.41 0.40 0.39 0.38 0.38 0.37 0.36 0.35 0.34 0.32 0.31 0.30 0.29 0.28 0.28 0.27 0.26 0.25 0.24 0.23 0.22 0.21 0.20 0.19 0.18 0.17 0.15 0.14 0.13 0.12 0.11 0.10 0.09 0.09 0.08 0.07 0.07 0.07 0.06 0.06 0.06 0.06 0.05 0.05 0.05 0.05 0.05 0.04 0.04 0.04 0.04 0.04 0.04 0.04 0.04 0.04 0.04 0.04 0.04 0.04 0.04 0.03 0.03 0.03 0.04 0.04 0.04 0.04 0.05 0.05 0.05
0.50 0.49 0.48 0.48 0.47 0.47 0.46 0.46 0.45 0.44 0.44 0.43 0.42 0.42 0.41 0.40 0.39 0.38 0.38 0.37 0.36 0.34 0.33 0.32 0.30 0.29 0.28 0.27 0.27 0.26 0.26 0.25 0.24 0.23 0.22 0.21 0.20 0.19 0.18 0.16 0.14 0.13 0.12 0.11 0.11 0.10 0.09 0.08 0.08 0.07 0.07 0.07 0.06 0.06 0.06 0.06 0.06 0.05 0.05 0.05 0.05 0.04 0.04 0.04 0.04 0.04 0.04 0.04 0.04 0.04 0.04 0.04 0.04 0.04 0.04 0.04 0.04 0.03 0.04 0.04 0.04 0.04 0.04 0.05 0.05
0.47 0.47 0.46 0.45 0.44 0.44 0.44 0.43 0.43 0.42 0.42 0.42 0.41 0.40 0.40 0.39 0.39 0.38 0.37 0.36 0.35 0.33 0.32 0.31 0.29 0.28 0.27 0.26 0.26 0.26 0.25 0.25 0.24 0.23 0.22 0.21 0.20 0.19 0.18 0.16 0.14 0.13 0.12 0.11 0.10 0.10 0.09 0.08 0.08 0.07 0.07 0.07 0.06 0.06 0.06 0.06 0.05 0.05 0.05 0.05 0.05 0.05 0.05 0.04 0.04 0.04 0.04 0.04 0.04 0.04 0.04 0.04 0.04 0.04 0.04 0.04 0.04 0.04 0.04 0.04 0.04 0.04 0.04 0.05 0.05
0.47 0.46 0.46 0.45 0.44 0.43 0.43 0.42 0.42 0.41 0.40 0.40 0.39 0.39 0.38 0.38 0.38 0.37 0.36 0.35 0.34 0.32 0.31 0.30 0.29 0.27 0.26 0.26 0.26 0.26 0.25 0.24 0.24 0.22 0.21 0.20 0.20 0.19 0.17 0.15 0.14 0.13 0.12 0.11 0.10 0.09 0.09 0.08 0.08 0.07 0.07 0.07 0.06 0.06 0.06 0.06 0.05 0.05 0.05 0.05 0.05 0.05 0.05 0.05 0.04 0.04 0.04 0.04 0.04 0.04 0.04 0.04 0.04 0.04 0.04 0.04 0.04 0.04 0.04 0.04 0.04 0.04 0.04 0.05 0.05
0.47 0.47 0.46 0.45 0.44 0.43 0.42 0.42 0.41 0.40 0.39 0.39 0.38 0.38 0.37 0.37 0.37 0.36 0.35 0.34 0.32 0.31 0.30 0.29 0.28 0.27 0.26 0.26 0.26 0.26 0.25 0.24 0.23 0.22 0.21 0.20 0.20 0.18 0.17 0.15 0.13 0.12 0.12 0.11 0.10 0.09 0.09 0.08 0.08 0.07 0.07 0.06 0.06 0.06 0.06 0.06 0.05 0.05 0.05 0.05 0.05 0.05 0.05 0.05 0.05 0.04 0.04 0.04 0.04 0.04 0.04 0.04 0.04 0.04 0.04 0.04 0.04 0.04 0.04 0.04 0.04 0.04 0.04 0.05 0.05
0.47 0.46 0.45 0.44 0.44 0.43 0.42 0.41 0.40 0.39 0.39 0.38 0.38 0.37 0.36 0.36 0.35 0.35 0.34 0.33 0.32 0.30 0.30 0.29 0.28 0.27 0.26 0.26 0.26 0.25 0.25 0.24 0.23 0.22 0.21 0.20 0.19 0.18 0.16 0.14 0.13 0.12 0.11 0.10 0.10 0.09 0.09 0.08 0.07 0.07 0.07 0.06 0.06 0.06 0.06 0.05 0.05 0.05 0.05 0.05 0.05 0.05 0.05 0.05 0.05 0.05 0.04 0.04 0.04 0.04 0.04 0.04 0.04 0.04 0.04 0.04 0.04 0.04 0.04 0.04 0.04 0.04 0.04 0.04 0.05
0.46 0.45 0.44 0.43 0.42 0.42 0.41 0.40 0.39 0.39 0.38 0.37 0.37 0.36 0.35 0.35 0.34 0.33 0.32 0.31 0.30 0.30 0.29 0.28 0.28 0.27 0.26 0.26 0.25 0.25 0.24 0.23 0.23 0.21 0.21 0.20 0.19 0.17 0.15 0.14 0.13 0.12 0.11 0.10 0.10 0.09 0.08 0.08 0.07 0.07 0.07 0.06 0.06 0.06 0.06 0.05 0.05 0.05 0.05 0.05 0.05 0.05 0.05 0.05 0.05 0.05 0.05 0.04 0.04 0.04 0.04 0.04 0.04 0.04 0.04 0.04 0.04 0.04 0.04 0.04 0.04 0.04 0.04 0.04 0.04
0.46 0.45 0.44 0.43 0.42 0.41 0.40 0.39 0.38 0.38 0.37 0.37 0.36 0.35 0.35 0.34 0.33 0.32 0.31 0.30 0.29 0.29 0.29 0.28 0.27 0.26 0.26 0.26 0.25 0.25 0.24 0.23 0.22 0.21 0.21 0.20 0.18 0.17 0.15 0.14 0.13 0.12 0.11 0.10 0.10 0.09 0.08 0.08 0.07 0.07 0.06 0.06 0.06 0.06 0.06 0.05 0.05 0.05 0.05 0.05 0.05 0.05 0.05 0.05 0.05 0.05 0.05 0.05 0.05 0.04 0.04 0.04 0.04 0.04 0.04 0.04 0.04 0.04 0.04 0.04 0.04 0.04 0.04 0.04 0.04
Wind_Speed
21 20 20 19 19 18 18 18 18 18 17 17 17 18 18 19 19 19 20 20 20 20 21 21 22 23 23 24 25 25 26 27 27 28 28 29 29 30 30 31 31 32 32 32 33 34 34 35 37 38 39 40 41 42 44 45 46 47 48 49 50 50 51 52 53 55 55 55 56 57 58 59 59 59 60 60 60 60 60 61 61 62 62 64 65
25 23 22 22 21 20 20 19 19 18 18 18 18 19 19 19 19 20 20 21 21 22 22 23 24 24 25 25 26 26 27 28 28 28 29 29 30 30 30 31 31 31 32 33 33 34 35 36 38 39 40 41 42 44 45 46 47 48 49 50 50 51 51 52 54 55 56 56 56 57 58 58 59 59 59 59 60 61 61 61 62 63 64 65 66
27 25 24 23 22 21 21 20 20 20 20 20 20 20 21 21 21 22 22 22 23 23 24 24 25 25 26 26 27 27 28 28 28 28 29 29 30 30 30 31 31 32 32 33 34 35 37 38 39 40 41 42 43 45 46 47 48 49 50 50 51 51 52 53 54 55 57 57 57 58 58 58 58 59 59 60 60 61 61 62 63 65 66 66 67
28 27 26 24 23 22 22 21 21 22 22 22 22 22 22 22 23 23 23 24 24 25 25 26 26 26 27 27 27 27 27 28 28 29 29 30 30 30 30 31 31 32 33 34 36 37 38 39 40 41 42 43 45 46 47 48 49 49 50 50 51 52 52 53 54 55 57 58 58 58 58 58 58 59 60 60 61 61 62 64 65 66 66 67 68
28 28 27 25 24 24 23 23 23 23 23 23 23 23 23 24 24 24 24 25 25 26 26 26 27 27 27 27 27 27 27 28 28 29 29 29 29 30 30 31 32 33 34 36 37 38 39 40 41 42 43 45 46 47 47 49 49 50 50 51 51 52 52 53 54 55 56 58 58 58 57 58 58 59 59 60 62 63 64 65 66 67 67 69 70
29 28 27 27 26 25 25 25 25 25 25 25 25 25 25 25 25 26 26 26 26 27 27 27 27 27 26 26 27 27 28 28 28 29 29 29 29 30 31 32 33 35 36 37 38 39 40 41 42 43 44 45 46 47 48 49 50 50 50 51 51 52 53 53 54 55 56 57 58 58 58 58 59 59 60 61 63 65 66 67 67 67 69 71 73
29 29 28 28 28 28 27 27 27 27 27 27 27 27 27 27 27 27 27 27 27 27 27 27 27 26 26 27 27 28 28 28 28 28 29 29 30 31 32 34 35 36 37 38 39 40 41 42 43 44 45 46 47 48 49 49 50 50 50 51 52 52 53 54 54 55 56 56 57 58 58 59 59 60 61 63 64 65 67 68 69 70 72 73 75
30 30 30 30 29 29 29 28 28 28 28 28 28 28 28 28 28 28 27 27 27 27 27 27 26 26 27 27 27 28 28 28 28 29 30 30 31 33 34 35 36 37 37 38 40 41 42 43 44 45 45 46 47 48 49 49 49 50 50 51 52 53 53 54 55 55 55 56 57 58 59 59 60 61 63 64 65 66 67 70 72 73 74 75 75
30 30 30 30 30 30 29 29 29 29 29 29 29 28 28 28 28 28 28 28 27 27 27 27 27 27 27 27 27 27 28 28 29 30 31 32 33 34 35 36 37 37 38 39 40 41 42 43 44 45 46 47 48 48 49 49 49 49 50 51 52 53 53 54 54 55 56 56 57 58 59 60 61 63 64 65 66 68 70 71 73 75 75 76 76
31 31 31 31 31 30 30 30 30 30 30 29 29 29 29 28 28 28 28 27 27 27 27 27 28 28 28 28 28 28 28 29 30 31 32 33 34 35 36 37 37 38 39 40 41 42 43 44 45 46 46 47 48 48 48 49 49 49 50 51 52 53 53 54 54 55 56 57 58 59 60 61 62 63 65 66 68 70 71 73 74 76 77 78 79
31 31 31 31 31 30 30 30 30 30 30 30 30 30 29 29 29 28 28 28 28 28 28 28 28 28 28 28 28 29 29 30 31 32 33 34 35 36 37 37 38 39 40 40 41 42 43 44 45 46 47 47 48 48 48 49 49 50 51 51 52 52 53 53 54 55 56 57 58 59 60 62 63 64 66 68 69 70 72 74 75 76 78 79 81
31 31 31 31 31 30 30 30 30 30 30 30 30 30 29 29 29 28 28 28 28 28 28 28 28 28 28 29 29 30 30 31 32 33 34 35 36 37 37 38 39 39 40 41 42 43 44 44 45 46 47 47 47 47 48 49 50 50 51 51 52 52 52 53 54 55 56 57 59 60 61 63 64 65 66 68 70 72 74 75 76 77 79 80 81
31 31 31 31 31 30 30 30 30 30 31 30 30 29 29 29 28 28 28 28 28 28 28 28 28 28 29 29 30 31 31 33 34 34 35 36 37 38 38 39 39 40 41 42 43 43 44 45 45 46 46 46 47 47 48 49 50 50 51 51 51 52 52 52 54 55 56 58 59 60 61 63 65 66 68 70 72 74 76 76 77 78 79 82 83
32 31 31 31 31 31 31 31 31 31 30 30 29 29 29 28 28 28 28 28 28 28 28 28 28 29 29 30 31 32 33 34 35 35 36 37 38 38 39 40 40 40 41 42 43 44 44 45 45 46 46 46 47 48 48 49 49 50 50 50 51 52 52 53 55 56 56 57 58 60 62 63 65 67 70 72 73 74 76 77 78 79 81 83 84
32 31 31 31 31 31 31 31 30 30 29 29 29 28 28 28 28 28 28 28 28 28 28 29 29 30 31 31 32 33 34 35 36 36 37 38 38 39 40 40 40 41 42 43 43 44 44 45 45 45 45 46 47 48 48 49 49 49 50 50 51 52 53 55 56 56 56 57 59 61 63 64 67 70 72 73 74 75 77 78 79 80 81 82 82
32 32 31 31 31 31 31 30 30 29 29 28 28 28 28 28 28 28 28 28 29 29 29 30 30 31 32 32 33 34 35 36 37 37 38 38 39 40 40 40 41 41 42 43 43 44 44 45 44 45 45 46 47 48 48 49 49 49 49 50 52 53 54 55 56 56 57 58 59 61 64 67 69 71 72 74 75 76 76 77 77 78 79 79 79
32 32 32 32 31 31 31 30 30 29 29 29 29 29 29 29 29 29 29 30 30 30 30 31 31 32 33 34 35 35 36 37 38 38 39 39 40 40 40 40 41 41 42 43 43 44 44 44 44 45 45 46 47 48 48 48 48 49 50 52 53 54 54 55 56 56 57 58 61 63 66 68 69 71 72 73 74 74 75 75 76 76 76 76 75
32 32 32 32 31 31 31 31 30 30 30 30 30 30 30 30 30 30 31 31 31 31 31 32 33 33 34 35 36 36 37 38 38 39 39 39 40 40 40 41 41 41 42 42 43 43 43 44 44 45 45 46 47 48 48 48 48 49 51 53 54 54 54 55 55 55 57 60 62 64 66 67 68 70 71 71 72 73 73 73 74 74 74 73 73
32 32 32 32 32 32 32 32 32 31 31 31 31 31 31 31 31 32 32 32 32 32 33 33 34 35 35 36 37 37 38 38 39 39 39 39 39 40 40 41 41 41 42 42 43 43 43 43 44 44 45 46 47 47 47 47 49 50 51 53 53 54 54 53 54 57 59 61 63 64 65 67 68 69 70 71 72 72 72 72 72 72 72 71 70
32 32 33 33 33 33 33 33 33 32 32 32 33 33 33 33 33 33 34 34 33 34 34 35 35 35 36 37 37 38 39 39 39 39 39 39 40 40 40 41 41 41 42 42 42 42 42 43 43 44 45 46 46 46 47 48 49 50 51 52 52 53 53 54 56 58 60 61 63 64 65 67 68 69 70 70 71 71 71 71 71 70 69 68 67
33 33 33 33 34 34 34 34 34 34 34 34 34 34 34 34 34 35 35 35 35 35 36 36 36 36 37 38 39 39 39 39 39 39 40 40 40 40 40 41 41 41 42 42 42 42 42 42 43 44 45 45 45 46 47 49 50 50 51 51 52 52 53 55 57 59 60 61 63 64 65 66 67 68 69 70 71 71 71 70 70 68 66 65 63
33 34 34 34 35 35 35 36 36 36 36 36 36 36 36 36 36 36 36 36 36 36 37 37 37 37 38 39 39 40 39 39 39 40 40 40 40 40 40 40 41 41 41 41 41 41 42 43 44 44 45 45 46 47 48 49 50 50 50 50 51 52 54 55 57 59 60 61 62 63 65 66 67 68 69 70 70 71 70 69 68 66 64 62 60
34 35 35 36 36 37 37 37 37 37 37 38 38 37 37 37 37 37 37 37 37 38 38 38 38 38 39 39 40 40 40 39 39 40 40 40 40 40 40 40 41 41 41 41 41 41 42 43 44 44 44 45 46 47 48 49 49 49 49 50 51 52 54 55 57 58 59 61 62 63 65 66 67 68 69 69 70 70 69 68 66 64 62 60 58
35 36 36 37 37 38 38 39 39 39 39 39 39 39 39 38 38 39 39 38 39 39 39 39 39 39 39 40 40 40 39 39 39 39 39 40 40 40 40 41 41 41 40 40 40 41 42 43 43 43 44 45 46 47 48 48 48 48 48 49 51 52 54 55 57 58 60 61 62 63 64 66 67 68 69 69 70 70 68 67 64 62 60 58 56
36 37 38 38 39 39 39 40 40 41 41 41 41 40 40 40 40 40 40 40 40 40 40 40 40 40 40 40 40 39 39 39 39 39 39 39 39 40 40 40 40 40 40 40 40 41 42 42 43 44 45 45 46 47 47 46 46 47 48 49 51 52 54 55 57 58 59 61 62 63 64 65 66 68 68 69 69 68 67 64 62 60 58 56 54
38 38 39 39 40 40 40 41 41 42 42 42 42 42 42 41 41 41 41 41 41 41 41 41 40 40 40 39 39 39 38 38 38 38 39 39 39 39 40 40 39 39 39 39 40 41 41 42 43 44 44 45 45 45 45 45 46 47 48 49 51 52 54 55 56 58 59 61 62 63 64 65 66 67 68 67 67 66 64 62 59 58 56 54 52
39 39 40 40 40 41 41 42 42 42 42 43 43 43 43 43 42 42 42 41 41 41 41 40 40 39 39 39 38 38 38 38 38 38 38 39 39 39 39 39 38 38 38 39 39 40 41 42 42 43 44 44 44 44 44 44 45 46 48 49 51 52 54 55 56 57 59 60 61 62 64 65 66 66 66 65 65 64 62 59 57 56 54 52 50
39 40 40 40 41 41 42 42 43 43 43 43 44 44 44 44 43 43 43 42 42 41 41 40 40 39 39 38 38 38 38 38 38 38 38 38 38 38 38 37 37 37 38 38 39 40 40 41 42 43 43 43 43 43 43 44 45 46 48 49 51 52 53 54 56 57 58 60 61 62 63 64 64 64 64 64 63 62 60 57 55 54 52 50 48
40 40 40 41 41 41 42 42 43 43 43 44 44 45 45 45 45 44 44 44 43 42 41 41 40 40 39 38 38 38 39 39 39 38 38 38 38 37 37 36 36 37 37 37 38 39 40 41 42 42 42 42 41 42 43 44 45 46 47 49 50 52 53 54 55 57 58 59 60 62 63 63 63 63 63 62 61 59 57 55 54 52 51 48 46
40 40 40 41 41 41 41 42 43 43 44 44 44 45 45 46 46 45 44 44 43 43 42 41 40 39 39 39 39 39 39 39 38 37 37 37 37 36 36 36 36 36 36 36 38 39 40 41 41 41 41 40 41 42 43 44 45 46 47 49 50 51 52 54 55 56 58 59 60 61 62 62 62 62 61 61 60 57 55 54 52 51 49 47 45
40 41 41 41 41 42 42 43 43 44 44 44 44 44 44 44 45 44 44 43 42 42 42 41 40 39 39 39 39 39 38 38 37 37 37 36 36 35 35 35 36 36 36 37 39 40 40 41 41 40 40 40 41 41 42 43 45 46 47 49 50 51 52 54 55 56 57 58 59 60 61 61 61 60 60 60 58 56 54 52 51 49 47 45 43
41 41 42 42 43 43 43 44 44 44 44 44 44 44 44 43 43 43 42 42 42 42 41 41 40 40 39 39 39 38 38 37 37 36 36 35 35 34 34 35 35 35 36 38 39 40 40 40 40 39 39 40 40 41 42 43 44 46 47 48 50 51 52 53 55 56 57 58 59 59 60 60 59 59 59 58 56 54 53 51 49 48 46 44 42
42 42 42 43 44 44 45 45 45 45 45 45 44 44 43 43 42 42 41 41 41 41 41 41 40 40 39 39 38 38 37 37 36 36 35 34 34 34 34 34 35 35 36 38 39 40 40 39 38 38 39 39 40 41 42 43 44 45 47 48 49 50 52 53 54 55 56 57 58 58 59 59 58 58 58 57 54 53 52 50 48 46 45 42 41
43 43 43 44 44 45 45 45 45 45 45 45 44 44 44 43 43 42 41 40 40 40 40 40 40 39 39 38 38 37 37 37 36 35 34 33 33 33 33 34 34 35 36 38 39 39 39 38 38 38 38 39 40 41 42 43 44 45 46 48 49 50 51 53 54 54 55 56 57 57 58 57 57 57 56 55 53 51 50 49 47 45 43 41 40
44 44 44 44 45 45 45 46 45 45 45 44 44 44 44 43 43 42 41 41 41 40 40 40 40 39 38 38 38 38 37 36 35 34 33 33 33 33 33 34 35 35 36 37 38 38 38 37 37 37 38 38 39 40 41 42 43 45 46 47 48 50 51 52 53 54 55 56 56 56 56 56 56 56 55 54 52 50 49 48 46 44 42 40 39
44 44 44 44 45 45 45 46 45 45 44 44 44 43 43 43 42 42 42 41 41 40 40 40 39 38 38 38 38 37 36 35 34 34 33 33 33 33 34 35 35 36 36 37 38 37 37 36 37 37 37 38 39 40 41 42 43 44 45 47 48 49 50 51 52 53 54 55 55 55 55 55 55 55 54 52 50 49 48 47 45 43 41 40 38
43 43 43 44 44 45 45 45 45 44 43 43 43 42 42 42 42 41 41 41 41 40 39 39 38 37 37 37 37 36 35 34 33 33 33 33 33 34 34 35 35 36 36 37 37 37 36 36 36 36 37 38 39 39 40 41 42 44 45 46 47 48 50 51 51 52 53 54 54 54 54 54 53 54 53 51 49 48 47 46 44 42 40 39 38
42 42 43 43 43 44 44 44 43 43 42 42 42 41 41 41 41 41 41 41 40 40 39 38 38 37 37 36 35 34 33 33 33 33 33 33 33 34 34 35 35 36 36 37 36 36 35 35 36 36 37 37 38 39 40 41 42 43 44 46 47 48 49 50 51 52 52 53 53 53 52 52 52 53 52 50 48 48 47 45 43 41 39 38 37
41 41 42 42 42 42 42 42 42 41 41 41 40 40 40 40 40 40 40 40 40 39 39 38 38 37 36 35 34 33 33 33 33 33 33 33 33 34 34 35 35 36 36 36 36 35 35 35 35 36 36 37 38 38 39 40 42 43 44 45 46 47 48 49 50 51 52 52 52 51 51 51 51 51 51 49 47 47 46 44 42 40 38 37 36
39 39 40 40 40 40 41 41 40 40 40 40 40 40 40 40 40 40 39 39 39 39 38 37 37 36 35 34 33 33 33 33 33 33 33 33 33 34 34 35 35 35 35 35 35 34 34 34 35 35 36 36 37 38 39 40 41 42 43 44 45 46 47 48 49 50 51 51 51 50 50 50 50 50 49 47 46 46 45 43 41 40 38 36 35
38 38 38 38 38 39 39 40 40 39 39 39 39 39 39 39 39 39 39 39 38 38 37 37 36 35 34 33 33 33 33 33 33 33 33 33 33 34 34 35 35 35 35 34 34 33 33 34 34 35 35 36 37 38 38 39 40 41 43 44 45 45 46 47 48 49 50 50 50 49 49 49 49 49 48 46 45 45 44 42 40 39 37 36 35
37 37 37 37 37 38 38 38 38 38 39 39 39 39 39 38 38 38 38 38 37 37 36 35 35 34 33 33 33 33 33 33 33 33 33 33 34 34 34 34 34 34 34 33 33 32 33 33 34 34 35 36 36 37 38 39 40 41 42 43 44 45 45 46 47 48 48 49 49 48 48 48 48 48 47 45 44 44 43 41 40 38 37 35 34
36 36 36 36 36 37 37 37 37 37 38 38 38 38 38 37 37 37 37 37 36 36 35 34 33 33 32 32 33 33 33 33 33 33 33 33 34 34 34 34 34 33 33 32 32 32 32 33 33 34 34 35 36 37 37 38 39 40 41 42 43 44 44 45 46 47 47 47 47 47 47 47 47 47 46 44 43 43 43 41 39 38 36 35 34
35 35 35 35 35 35 36 36 36 37 37 37 37 37 37 36 36 36 36 35 35 34 34 33 33 32 32 32 32 33 33 33 33 33 34 34 34 34 34 33 33 32 31 31 31 31 31 32 32 33 34 35 35 36 37 38 39 40 40 41 42 43 43 44 45 45 46 46 46 46 46 46 46 46 45 43 42 42 42 40 39 37 36 34 33
35 34 34 34 34 35 35 35 35 35 35 35 35 35 35 35 35 35 34 34 34 33 33 33 33 32 32 32 32 32 33 33 33 33 33 34 34 33 33 32 31 31 30 30 30 31 31 31 32 33 34 34 35 36 37 37 38 39 40 40 41 42 43 43 44 45 45 45 45 45 44 44 45 45 44 42 41 41 41 40 38 37 35 34 33
34 34 33 33 33 33 33 33 33 33 33 33 34 34 34 34 34 34 34 33 33 33 33 33 33 33 32 32 32 32 32 33 33 33 33 33 33 32 31 30 30 30 30 30 30 30 31 31 32 32 33 34 34 35 36 37 38 38 39 40 40 41 42 43 43 44 44 44 44 44 43 43 44 44 43 42 41 40 40 39 38 36 35 34 32
33 33 32 32 32 32 32 32 32 32 32 33 33 33 33 33 34 34 33 33 33 33 33 33 32 32 32 32 32 32 32 32 33 33 33 33 32 31 30 29 29 29 29 30 30 30 30 31 31 32 32 33 34 35 35 36 37 38 38 39 40 40 41 42 42 43 43 43 43 43 42 42 43 42 42 41 40 40 40 39 38 36 35 33 32
32 32 32 31 31 31 32 32 32 32 32 32 33 33 33 33 33 33 33 33 33 33 33 32 32 32 32 31 32 32 32 32 32 32 32 31 30 30 29 29 29 29 29 29 29 29 30 30 31 31 32 32 33 34 35 35 36 37 38 38 39 39 40 41 41 42 42 42 42 41 41 42 42 42 41 40 39 39 39 39 37 36 34 33 32
32 31 31 31 31 32 32 32 32 32 32 32 32 33 33 33 33 33 33 33 33 33 33 32 32 32 32 31 31 31 31 31 32 31 31 30 30 29 29 29 29 29 29 29 29 29 29 30 30 31 31 32 33 33 34 35 35 36 37 37 38 38 39 40 40 41 41 41 40 40 40 41 41 41 40 39 39 38 38 38 37 36 34 33 32
31 31 31 31 31 31 31 31 31 32 32 32 32 33 33 33 33 33 33 33 33 33 32 32 32 32 32 31 31 31 31 31 31 31 31 30 30 29 29 29 29 29 29 29 29 29 29 30 30 30 31 31 32 33 33 34 35 35 36 36 37 38 38 39 39 40 40 40 39 39 39 40 40 40 39 38 38 38 38 37 37 36 34 33 31
31 30 30 30 30 30 30 31 31 31 32 32 33 33 33 33 33 33 33 33 33 33 32 32 32 32 32 31 31 31 31 31 31 31 30 30 30 29 29 29 29 29 29 29 29 29 29 29 29 30 30 31 31 32 33 33 34 35 35 36 36 37 37 38 38 39 39 39 39 38 38 39 39 39 38 37 37 37 37 37 36 35 34 32 30
Wind_Direction
228 230 229 229 229 232 236 239 240 242 243 245 248 250 252 254 256 259 263 266 269 272 275 277 279 282 284 286 288 290 293 295 297 298 299 300 301 301 301 301 301 301 301 302 303 304 304 305 305 306 306 307 307 308 308 309 309 310 310 310 309 309 309 308 306 306 307 307 307 307 307 307 307 307 307 307 306 306 306 305 305 304 304 304 304
229 231 231 231 233 234 237 240 243 244 246 247 248 251 253 256 259 262 266 270 272 274 277 278 281 283 285 287 289 291 293 295 297 298 299 299 300 300 300 300 300 301 301 302 303 304 305 305 305 306 307 307 308 309 309 310 310 311 310 310 310 310 309 308 308 307 308 308 308 308 308 308 307 307 308 307 307 307 306 305 305 305 305 305 305
229 231 232 234 237 238 240 242 244 246 248 250 252 255 257 260 263 267 270 272 274 276 278 280 282 284 285 288 290 292 294 296 297 298 298 299 299 299 299 300 300 301 302 303 303 304 304 305 306 307 307 308 309 309 310 310 311 311 311 311 310 310 310 309 309 308 308 309 309 308 308 308 308 308 308 307 307 307 306 306 306 306 306 306 306
231 232 234 237 239 241 242 244 245 247 250 253 255 258 261 264 266 269 271 273 275 277 279 280 282 284 286 288 290 292 294 295 296 297 297 298 298 298 299 300 301 301 302 303 303 304 305 306 307 307 308 309 309 310 310 311 311 311 311 311 310 310 310 310 310 310 309 309 309 309 309 308 308 308 308 308 307 307 307 306 306 306 306 306 306
233 234 235 238 240 242 243 245 246 248 252 255 258 260 262 265 267 269 271 273 275 277 279 280 282 284 286 288 291 292 293 294 295 296 297 297 298 298 299 300 301 302 302 303 304 305 306 307 307 308 309 309 310 310 310 311 311 311 311 311 311 311 311 311 311 310 310 309 310 310 309 309 309 309 309 308 308 308 307 307 307 307 307 307 307
234 235 237 239 241 243 244 246 248 251 255 258 260 262 264 266 268 270 272 274 276 277 278 280 282 284 286 288 290 291 292 293 294 295 296 297 298 299 300 301 301 302 302 303 305 306 306 307 308 308 309 309 310 310 311 311 311 311 312 312 312 312 312 312 311 311 311 310 310 310 310 310 310 309 310 309 309 309 308 308 308 308 308 308 307
234 236 238 240 242 244 246 249 252 255 258 260 262 263 265 267 269 271 273 274 276 277 279 281 282 284 286 288 289 290 291 292 294 295 296 297 299 300 300 301 301 302 303 304 305 306 307 308 308 309 309 310 310 310 311 312 312 312 312 313 313 313 313 312 312 312 311 311 310 310 310 310 310 310 310 310 310 309 309 309 309 308 308 308 308
235 238 240 242 244 247 249 251 254 257 259 260 262 263 265 267 269 271 273 275 276 278 279 281 282 283 285 286 288 289 290 292 293 295 296 298 299 300 300 301 302 303 304 305 306 307 307 308 309 309 310 310 310 311 312 312 312 312 313 313 313 313 313 313 313 312 311 311 311 311 311 311 311 311 311 311 311 311 310 310 309 309 309 309 309
238 240 242 244 246 248 250 253 255 257 259 260 262 264 266 267 269 271 274 275 277 278 279 280 281 283 285 286 288 289 290 292 294 295 297 298 299 300 301 302 303 304 305 305 306 307 308 308 309 309 310 310 311 312 312 312 313 313 313 313 313 313 313 313 313 313 312 312 312 312 312 312 312 312 312 312 312 312 311 311 310 310 310 310 310
240 242 244 245 247 249 251 253 255 256 258 260 262 264 266 268 270 272 273 275 275 276 278 279 281 283 285 287 288 289 290 292 294 295 297 298 299 300 301 302 303 304 305 305 306 307 308 309 309 309 310 311 312 312 312 313 313 314 314 314 314 314 314 314 314 313 313 313 313 313 313 313 313 313 313 313 313 313 313 312 312 312 311 311 310
241 243 245 246 248 250 252 253 255 256 258 260 262 264 266 268 270 272 273 274 275 276 278 280 281 283 285 287 288 289 290 292 294 296 297 298 300 301 301 302 303 304 304 305 306 307 308 309 309 310 311 311 312 312 313 313 314 314 314 314 315 315 315 314 314 314 314 314 314 314 313 313 314 314 314 314 314 314 314 313 313 313 313 312 311
242 244 245 247 248 250 251 253 254 256 258 260 262 264 265 267 269 270 272 273 275 277 278 280 281 283 285 286 287 289 291 292 294 296 297 298 300 301 301 302 303 303 305 306 306 307 308 308 309 310 311 312 312 312 313 314 315 315 315 315 316 315 315 315 315 315 315 314 314 314 314 314 315 315 316 316 315 314 314 314 314 313 313 312 312
243 245 246 247 248 249 251 252 254 256 258 260 261 263 265 266 268 269 271 273 275 276 278 280 281 283 284 286 288 289 291 292 294 295 297 298 300 301 301 302 303 304 305 306 307 307 308 309 310 311 312 312 312 313 314 314 315 315 316 316 316 315 315 315 315 315 315 314 315 315 316 316 316 316 316 316 316 315 315 314 314 314 313 313 313
244 245 246 247 248 250 251 253 254 256 257 258 260 262 263 265 267 268 270 272 274 276 277 279 281 283 285 287 288 290 291 292 294 296 297 298 299 300 301 302 303 304 305 306 306 307 308 309 310 311 311 312 313 313 314 315 315 316 316 316 316 316 316 316 316 315 315 315 316 316 317 317 317 317 317 317 316 316 316 315 315 314 314 313 313
243 244 245 247 248 249 251 252 253 254 256 257 259 261 262 264 265 267 269 271 273 276 278 279 281 283 285 287 289 291 291 292 294 296 297 298 299 300 301 302 303 304 305 305 306 307 309 310 310 311 311 312 313 314 314 315 315 316 316 316 316 317 317 317 316 316 316 317 317 317 318 318 317 317 317 317 317 316 316 316 315 315 314 314 314
243 244 245 246 247 248 249 251 252 253 254 256 257 259 261 262 265 267 270 272 274 276 278 280 282 284 286 288 290 291 292 292 294 296 297 298 299 300 301 302 303 304 304 305 306 308 309 310 310 311 311 312 313 314 315 316 316 316 316 316 317 317 317 317 317 317 317 317 318 318 318 318 318 318 318 318 318 317 317 316 316 316 316 315 315
243 244 244 245 246 247 248 250 251 252 253 255 257 259 261 263 265 268 270 272 275 277 279 281 283 285 287 288 290 292 292 292 293 295 296 298 299 300 301 302 303 303 304 305 307 308 309 310 310 311 311 313 314 315 316 316 316 316 317 317 317 317 317 317 317 318 318 319 319 319 319 319 319 319 319 319 319 319 318 318 318 318 317 317 317
242 242 243 244 246 247 248 249 250 252 254 256 258 260 262 264 266 268 271 273 275 277 279 281 283 285 287 288 290 291 292 292 293 295 296 297 299 300 301 301 302 303 304 306 307 308 309 309 310 311 312 313 314 315 316 317 317 317 317 318 318 318 318 318 319 319 320 320 320 320 321 321 321 321 321 321 321 321 320 320 320 319 319 318 318
242 243 244 245 246 247 249 250 251 253 255 257 259 261 263 265 267 269 271 273 275 277 279 281 283 285 287 288 289 291 292 292 293 294 296 297 298 300 300 301 302 303 305 306 308 308 308 309 310 311 312 314 315 315 316 317 317 317 317 318 318 318 319 320 320 320 321 321 321 322 322 322 322 322 322 322 322 322 322 321 321 320 320 319 319
244 244 245 246 247 248 250 252 253 255 257 258 260 262 264 266 268 269 271 274 275 277 279 281 283 285 286 288 289 290 292 293 293 294 296 297 298 299 300 301 302 304 305 306 307 307 308 309 310 312 313 314 315 316 316 317 317 318 318 318 319 319 320 320 320 321 322 322 323 323 323 324 324 324 323 323 323 323 323 323 322 322 321 320 320
245 246 247 248 249 250 252 253 255 257 258 260 261 263 264 266 268 269 271 273 275 277 279 281 283 284 286 287 289 290 291 292 293 294 295 297 297 299 300 301 302 304 305 306 306 307 308 309 311 312 313 314 315 316 317 317 318 318 318 319 319 319 320 321 322 322 323 323 324 324 325 325 325 325 325 325 325 325 324 324 324 323 322 321 321
248 248 249 250 251 253 254 255 257 258 259 261 262 263 265 266 268 269 271 273 274 276 278 280 282 283 285 286 288 289 290 292 293 294 295 296 297 298 300 301 302 303 305 305 306 307 308 310 311 312 314 315 316 316 317 318 318 318 319 319 319 320 321 322 323 323 324 325 325 325 326 326 326 326 326 326 326 326 326 325 325 324 324 323 322
250 250 251 252 253 255 255 256 258 259 260 261 262 263 265 266 268 269 271 272 274 275 277 279 280 282 284 285 287 289 290 291 292 293 294 296 297 298 299 301 302 303 304 305 306 307 308 310 311 313 314 315 316 317 318 318 318 319 319 320 321 322 322 323 324 325 325 326 326 326 326 326 327 327 327 327 327 327 327 326 326 326 325 324 323
252 252 253 254 255 256 257 258 259 260 261 261 262 264 265 266 267 269 270 271 273 274 276 278 279 281 283 284 286 288 290 291 292 293 294 296 297 298 299 300 301 302 303 304 306 307 309 310 312 314 315 316 317 318 318 318 319 319 320 321 322 323 323 324 325 326 326 327 327 327 327 327 328 328 328 328 328 328 328 328 327 327 326 326 325
254 255 255 256 257 258 258 259 260 260 261 262 263 263 264 265 266 268 269 270 272 274 275 277 279 280 282 283 285 287 289 291 292 293 294 295 296 297 299 300 300 301 303 304 306 307 309 311 313 314 315 316 317 317 318 318 319 320 321 322 323 323 324 325 326 327 327 327 328 328 328 328 329 329 329 329 329 329 329 329 329 328 328 327 326
257 257 257 258 258 259 259 260 260 261 261 262 263 264 264 265 266 267 268 270 271 273 275 276 278 279 281 282 284 286 288 290 292 294 295 295 296 297 298 299 300 301 303 304 305 307 310 312 313 314 315 316 317 317 318 318 319 320 321 322 323 324 325 326 327 327 327 328 328 328 329 329 330 330 330 330 330 330 331 330 330 330 330 329 329
259 259 259 259 260 259 260 260 261 261 262 262 263 264 265 265 266 267 268 270 271 273 274 276 277 278 280 281 283 285 288 290 292 294 294 295 296 297 298 299 300 301 302 304 306 309 311 312 313 315 316 316 317 317 318 318 319 321 322 323 324 325 326 327 327 327 328 328 329 329 330 330 331 331 331 331 332 332 331 331 331 331 331 331 330
260 260 260 260 260 261 261 261 261 262 263 263 264 265 265 266 266 267 268 269 270 272 273 274 275 277 279 281 283 285 287 289 291 292 293 294 296 297 298 299 299 301 302 304 307 309 311 312 314 315 315 316 316 317 318 319 320 321 322 323 325 326 327 327 327 328 329 329 329 330 331 331 332 332 333 333 333 333 332 332 332 332 332 332 331
261 261 261 261 262 262 262 263 263 264 264 265 265 266 266 266 267 267 268 269 270 271 272 273 275 276 278 280 282 284 286 288 289 290 291 293 294 296 297 298 299 301 302 305 307 310 311 312 313 314 315 315 316 317 318 319 320 321 323 324 325 326 327 328 328 329 329 330 330 331 332 332 333 333 333 334 334 333 333 334 333 333 333 333 333
262 262 262 263 263 264 264 264 264 265 265 265 266 267 267 267 267 267 268 269 269 270 271 273 275 276 278 280 281 284 286 287 288 288 290 291 293 294 295 297 298 301 303 305 308 310 311 312 313 313 314 314 315 317 318 319 321 322 323 325 326 327 327 328 329 329 330 330 331 332 332 333 334 334 334 334 334 334 334 334 334 334 334 334 334
264 263 263 264 264 264 265 265 265 265 265 266 266 267 267 267 267 267 268 268 268 268 270 271 273 275 277 279 281 283 285 286 286 287 289 290 292 293 294 296 298 300 303 306 309 310 311 312 312 312 313 314 315 317 318 319 321 322 324 325 326 327 328 328 329 330 330 331 332 333 333 334 334 334 335 335 335 335 335 335 335 335 335 335 334
265 265 265 265 264 264 265 265 265 265 266 266 266 266 267 267 267 267 267 266 266 267 268 270 272 273 276 278 280 282 283 284 285 286 288 289 290 292 294 296 298 300 303 306 308 310 311 311 311 311 312 314 315 317 318 320 321 323 324 326 327 327 328 329 330 330 331 332 332 333 334 334 335 335 335 336 335 335 336 336 336 336 336 335 335
266 266 266 266 265 265 265 266 266 266 266 266 266 266 266 265 265 266 266 266 265 266 268 269 271 273 274 276 278 280 281 282 284 285 287 288 289 291 293 296 298 300 303 306 308 309 310 310 310 311 313 314 316 317 318 320 322 323 325 326 327 328 328 329 330 331 331 332 333 334 334 335 335 336 336 336 336 336 336 336 336 336 336 336 335
268 268 267 267 267 266 266 266 267 267 267 266 266 266 265 264 264 264 264 264 264 266 268 269 270 271 273 274 276 277 279 281 282 284 285 286 288 291 293 296 298 300 303 305 307 309 309 309 310 311 313 314 316 317 319 320 322 324 325 326 327 328 329 330 330 331 332 332 333 334 335 335 336 336 337 337 336 336 336 337 337 337 337 336 335
269 269 268 267 268 268 267 267 267 267 267 267 266 265 264 264 264 263 263 263 264 266 267 268 269 270 271 273 275 276 278 280 281 282 283 285 287 290 293 295 297 300 303 305 307 308 308 308 309 311 313 314 316 317 319 321 322 324 325 326 327 328 329 330 331 331 332 333 334 334 335 336 336 337 337 337 337 337 337 337 337 337 336 336 336
269 269 268 267 267 267 267 267 267 267 267 267 266 265 265 264 264 264 263 264 264 265 267 268 269 269 270 272 274 275 276 278 279 280 282 284 286 289 292 295 296 299 302 304 306 307 307 308 310 311 313 315 316 317 319 321 323 324 325 326 327 329 330 330 331 332 332 333 334 334 335 336 336 337 337 337 337 337 337 337 337 337 336 336 336
269 268 267 267 266 266 267 267 267 267 267 267 266 265 265 264 264 264 264 264 264 265 266 267 268 269 270 272 273 273 274 276 277 280 282 284 286 289 292 294 296 298 301 303 305 306 306 308 310 311 313 315 316 318 320 321 323 324 326 327 328 329 330 331 331 332 333 333 334 335 335 336 337 337 338 337 337 337 337 337 337 337 336 336 336
269 268 268 267 266 266 266 267 267 267 266 266 266 265 265 264 264 264 264 264 264 265 265 266 266 268 269 271 272 273 274 275 277 280 282 284 286 289 292 293 296 298 301 303 304 305 306 308 310 311 313 315 316 318 320 322 323 324 326 327 328 329 330 331 332 332 333 334 334 335 336 336 337 338 338 338 338 338 338 337 337 337 337 336 336
270 269 268 267 267 267 267 267 267 266 266 265 265 264 264 264 264 264 264 264 264 264 264 265 265 267 268 269 270 271 273 275 277 280 282 284 287 289 291 293 295 298 300 302 303 304 305 307 309 311 313 315 316 318 320 322 323 325 326 327 328 329 330 331 332 333 334 334 335 335 336 336 337 338 338 338 338 338 338 337 338 338 337 336 336
271 270 268 267 267 267 267 267 267 266 265 265 264 264 264 264 263 264 264 264 264 264 264 264 264 265 266 266 267 269 271 274 276 279 281 284 287 289 290 292 294 297 299 301 302 303 305 307 309 311 313 315 316 318 320 322 323 325 326 327 328 329 330 331 332 333 334 334 335 335 336 337 338 338 339 338 338 338 338 338 338 338 337 336 336
271 271 269 268 267 267 267 267 267 266 265 265 265 264 264 264 264 264 264 264 264 264 263 263 263 264 264 264 265 268 271 274 276 279 281 284 286 288 290 291 293 296 298 299 301 302 305 307 309 311 313 315 316 318 320 321 323 325 326 327 328 329 330 331 332 334 334 335 335 336 336 337 338 339 339 339 339 339 338 338 338 338 337 336 337
272 271 270 269 268 267 267 268 267 267 266 266 266 265 265 265 264 264 264 264 264 263 263 262 263 263 264 263 264 267 271 274 277 279 281 284 286 288 289 291 293 295 297 298 300 302 305 307 309 310 313 314 316 318 320 321 323 325 326 327 328 329 330 331 333 334 335 335 336 336 336 337 338 339 339 339 339 339 339 339 338 338 337 337 337
272 271 270 269 268 268 268 268 268 267 267 267 267 266 265 265 264 263 263 263 262 262 261 261 262 263 263 263 264 267 271 275 277 279 281 284 286 287 289 290 292 294 295 296 298 301 303 306 308 310 312 314 316 317 319 321 323 324 326 327 328 329 330 331 333 334 335 336 336 336 337 337 338 339 340 339 339 340 340 339 338 338 338 337 337
272 271 271 270 269 269 268 268 268 268 268 267 267 266 264 263 263 262 262 262 261 261 261 261 261 262 263 264 265 268 271 274 277 279 281 284 285 287 288 290 291 292 293 295 297 299 302 305 307 309 311 313 315 317 318 320 322 323 325 326 328 329 330 332 333 334 335 336 336 337 337 338 339 339 340 339 339 340 340 340 339 338 338 338 338
271 271 271 271 270 269 269 269 268 268 267 267 266 265 264 263 263 262 262 262 261 261 261 261 261 262 263 265 267 269 271 274 276 278 281 283 285 286 287 288 289 290 292 294 297 299 301 304 306 309 311 313 315 316 318 320 321 323 324 326 327 329 330 331 332 334 335 336 336 337 337 338 339 340 340 340 340 340 341 340 339 339 338 338 337
271 271 271 270 270 270 269 269 268 267 266 265 265 264 263 263 263 262 262 262 261 261 260 261 261 262 263 265 267 269 271 274 276 278 281 283 283 284 285 286 287 289 291 294 296 298 301 303 306 309 311 313 314 316 318 319 321 322 324 325 326 328 329 331 332 333 334 335 336 337 338 338 339 340 340 340 340 340 341 341 340 339 338 338 337
271 271 270 270 269 269 268 268 267 266 266 266 265 265 264 264 263 263 262 261 260 260 260 261 261 261 263 265 267 269 271 273 276 278 280 281 281 282 282 284 286 288 291 293 295 298 300 303 305 308 310 312 314 316 317 319 321 322 324 325 326 327 329 330 332 333 334 335 336 337 338 339 340 340 340 340 340 340 341 341 340 340 339 338 337
271 270 269 269 268 268 268 268 267 267 267 267 266 265 265 264 263 263 262 260 260 260 260 260 260 262 263 266 268 269 271 273 276 278 279 279 279 279 281 283 286 288 291 293 295 297 299 302 304 307 309 311 313 315 317 319 320 322 323 325 326 327 329 330 332 333 334 335 336 337 338 339 340 340 341 341 341 341 341 341 341 340 339 338 338
270 269 269 269 269 269 269 268 268 268 268 267 266 266 265 264 262 262 261 261 260 259 259 259 260 262 264 266 268 269 271 273 275 277 277 277 277 278 280 282 285 287 290 293 294 296 299 301 304 306 308 310 312 315 316 318 320 321 323 324 326 327 328 330 331 333 334 335 335 336 337 339 340 341 341 341 341 341 341 341 341 341 340 339 338
269 269 270 270 270 270 270 269 269 269 268 268 267 267 265 263 262 261 261 260 259 259 259 259 260 262 263 265 267 268 270 272 274 275 275 275 276 277 279 281 284 287 289 292 294 296 298 300 303 305 307 309 312 314 316 317 319 321 322 324 325 327 328 330 331 332 333 334 335 336 337 339 340 341 341 341 341 342 342 342 342 341 340 339 338
270 270 271 271 271 271 270 270 270 269 269 268 267 267 265 263 262 261 261 260 259 258 259 259 260 262 263 265 267 268 270 272 273 274 274 274 275 276 278 281 283 286 288 291 292 294 297 299 301 304 306 308 311 313 315 317 318 320 322 324 325 327 328 330 331 332 333 334 335 336 337 339 340 341 341 341 342 342 342 342 342 342 341 339 338